Regional Weather Roundup
Issued by NWS Sterling, VA

Home | Current Version | Previous Version | Text Only | Print | Product List | Glossary On
Versions: 1 2 3 4 5 6 7 8 9 10 11 12 13 14 15 16 17 18 19 20 21 22 23 24 25 26 27 28 29 30 31 32 33 34 35 36 37 38 39 40 41 42 43 44 45 46 47 48 49 50
000
ASUS41 KLWX 290710
RWRLWX

REGIONAL WEATHER ROUNDUP
NATIONAL WEATHER SERVICE BALTIMORE MD/WASHINGTON DC
200 AM EST THU JAN 29 2015

Note: "FAIR" indicates few or no clouds below 12,000 feet
with no significant weather and/or obstructions to visibility.
 TC=TEMPERATURE CELSIUS

 * =Non NWS site. Station does not report precipitation (e.g. rain,
    snow, etc.), thunder, or fog.

DCZ001-MDZ009-015-VAZ040>042-051-053>054-290800-
WASHINGTON METRO

CITY           SKY/WX    TMP DP  RH WIND       PRES   REMARKS
WASHINGTON NAT CLEAR     27   8  44 N3        30.35S
DULLES         CLEAR     17  10  74 CALM      30.34R
ANDREWS AFB    CLEAR     25   8  48 NW5       30.32S
FT BELVOIR     CLEAR     20  14  76 W2        30.35S
QUANTICO       CLEAR     23  12  62 NW6       30.37R
COLLEGE PARK*  CLEAR     23  16  74 CALM      30.34R
LEESBURG*      CLEAR     23  10  58 N5        30.33F
MANASSAS*      CLEAR     16  14  93 CALM      30.35S
GAITHERSBURG*  CLEAR     16   5  62 CALM      30.35S

$$

MDZ006>007-011-014-290800-
BALTIMORE METRO

CITY           SKY/WX    TMP DP  RH WIND       PRES   REMARKS
BWI AIRPORT    PTCLDY    22   7  52 W3        30.32S
MD SCIENCE CTR   N/A     26   6  42 MISG      30.32S
MARTIN STATE   CLEAR     23  14  68 W3        30.34S
ANNAPOLIS      CLEAR     26   8  46 W5        30.33S
FORT MEADE*    PTCLDY    18  14  86 CALM      30.36R

$$

MDZ012-015-019>023-290800-
MARYLAND EASTERN SHORE

CITY           SKY/WX    TMP DP  RH WIND       PRES   REMARKS
OCEAN CITY     CLEAR     25  10  53 NW8       30.32R WCI  16
SALISBURY      CLEAR     25  12  58 NW5       30.31S
BAY BRIDGE AP*   N/A     28  10  47 NW7       30.33S
CAMBRIDGE*     CLEAR     32  16  51 NW3       30.31S
EASTON*        CLEAR     26  16  64 CALM      30.35F

$$

MDZ017>025-290800-
SOUTHERN MARYLAND

CITY           SKY/WX    TMP DP  RH WIND       PRES   REMARKS
PATUXENT RIVER CLEAR     23   9  55 W7        30.33S
ST INIGOES     CLEAR     27   6  41 NW6       30.33S
LEONARDTOWN*   CLEAR     23  10  58 CALM      30.34S

$$

MDZ003>005-290800-
NORTH CENTRAL MARYLAND

CITY           SKY/WX    TMP DP  RH WIND       PRES   REMARKS
FREDERICK*     CLEAR     18  12  79 CALM      30.36S
HAGERSTOWN APT PTCLDY    20   6  55 SE7       30.31S
WESTMINSTER*   PTCLDY    19   3  49 CALM      30.29S

$$

MDZ501>502-290800-
WESTERN MARYLAND

CITY           SKY/WX    TMP DP  RH WIND       PRES   REMARKS
OAKLAND*       PTCLDY    19  -4  35 SE10      30.12F WCI   8
CUMBERLAND*    PTCLDY    14   9  79 CALM      30.35S

$$

VAZ025>031-290800-
SHENANDOAH VALLEY

CITY           SKY/WX    TMP DP  RH WIND       PRES   REMARKS
WINCHESTER*    PTCLDY    19   7  58 CALM      30.31S
FRONT ROYAL*   FAIR      18  12  79 CALM      30.30S
LURAY*         FAIR      19  18  93 CALM      30.30S
NEW MARKET*    FAIR      13  11  89 MISG      30.30S
STAUNTON*      PTCLDY    18  13  81 CALM      30.30S
WAYNESBORO*    FAIR      17  10  71 CALM      30.27S

$$

WVZ021-048>050-054>055-290800-
EASTERN WEST VIRGINIA PANHANDLE

CITY           SKY/WX    TMP DP  RH WIND       PRES   REMARKS
MARTINSBURG    PTCLDY    13   7  77 CALM      30.32F
PETERSBURG*    CLEAR     13  11  89 CALM      30.31S

$$

VAZ036>039-050-290800-
CENTRAL FOOTHILLS

CITY           SKY/WX    TMP DP  RH WIND       PRES   REMARKS
CHARLOTTESVILL CLEAR     24   3  40 CALM      30.31S
CULPEPER*      CLEAR     18  14  86 CALM      30.33S
ORANGE*        CLEAR     19  18  93 CALM      30.34S
GORDONSVILLE*  FAIR      16  13  88 CALM      30.33R
WARRENTON*     FAIR      16  16 100 CALM      30.33S

$$

VAZ055>057-290800-
NORTH AND CENTRAL PIEDMONT

CITY           SKY/WX    TMP DP  RH WIND       PRES   REMARKS
FREDERICKSBRG* CLEAR     22  15  73 CALM      30.34S
STAFFORD*      CLEAR     22   8  56 CALM      30.38S

$$

NCZ024-NYZ072-PAZ021-071-VAZ022-071-290800-
OTHER REGIONAL OBSERVATIONS

CITY           SKY/WX    TMP DP  RH WIND       PRES   REMARKS
NEW YORK CITY  CLEAR     23   1  38 VRB3      30.31R
PHILADELPHIA   PTCLDY    25   2  37 N5        30.32R
PITTSBURGH     CLOUDY    19  12  74 SE6       30.20F
ROANOKE        CLEAR     26  13  57 CALM      30.32S
RICHMOND       CLEAR     27  10  49 N6        30.34S
RALEIGH        PTCLDY    26  14  60 CALM      30.33S

$$

ANZ530>537-290800-
MARINE OBSERVATIONS

STATION/POSITION TIME  TEMP    WIND        PRES
                       AIR SEA DIR/SP/G
                 (UTC) (F)     (DEG/KT/KT) (MB)
THOMAS PT LIGHT  0700   28 36  310/ 11/ 12 1028.0S
BALT KEY BRIDGE  0700   28     270/  9/ 10 1026.9R
COVE POINT       0700   30     350/ 13/ 14 1026.6S
LEWISETTA        0700   31 36  320/  4/  6 1026.9S
SOLOMONS ISLAND  0700      37                N/A
PINEY POINT      0700          350/ 12/ 13   N/A

$$




USA.gov is the U.S. government's official web portal to all federal, state and local government web resources and services.